Home > Weather > Caracas > Past weeks

Flag for Venezuela Weather for the Past 2 Weeks in Caracas, Venezuela

Now
81 °F

Passing clouds.


Feels Like: 85 °F
Forecast: 66 / 79 °F
Wind: 3 mph from Northeast

Location: Caracas / Maiquetia Aerop. Intl. Simon Bolivar

Current Time: Feb 8, 2016 at 10:17:18 AM

Latest Report: Feb 8, 2016 at 9:30 AM


Visibility: N/A

Pressure: 30.04 "Hg (27.19 "Hg at 875m altitude)

Humidity: 79%

Dew point: 73 °F

Location of CaracasLocation

Historic Weather in Caracas — Graph

°F

Caracas Temperature Yesterday

Maximum temperature yesterday: 88 °F (at 12:30 PM)
Minimum temperature yesterday: 73 °F (at 2:30 AM)
Average temperature yesterday: 79 °F

High & Low Weather Summary for the Past Weeks

 TemperatureHumidityPressure
High88 °F (Jan 24, 10:30 AM)94% (Feb 7, 6:30 PM)30.12 "Hg (Feb 7, 6:30 PM)
Low72 °F (Jan 28, 7:30 AM)41% (Feb 7, 12:30 AM)29.83 "Hg (Feb 6, 3:30 PM)
Average78 °F78%30.00 "Hg
* Reported Jan 24 8:30 AM — Feb 8 8:30 AM, Caracas, Weather by CustomWeather, © 2016

Note: Actual official high and low records may vary slightly from our data, if they occured in-between our weather recording intervals... More about our weather records

Advertising

Caracas Weather History for the Previous 24 Hours

 ConditionsComfort  
Time TempWeatherWind HumidityBarometerVisibility
8:30 AM
Mon, Feb 8
77 °FScattered clouds.No wind83%30.01 "HgN/A
7:30 AM73 °FScattered clouds.No wind89%30.01 "HgN/A
6:30 AM77 °FPassing clouds.No wind83%29.95 "HgN/A
5:30 AM77 °FPassing clouds.No wind83%29.98 "HgN/A
4:30 AM77 °FPassing clouds.No wind83%29.95 "HgN/A
3:30 AM77 °FPassing clouds.No wind83%29.95 "HgN/A
2:30 AM77 °FPassing clouds.No wind83%29.95 "HgN/A
1:30 AM77 °FPassing clouds.No wind83%29.98 "HgN/A
11:30 PM
Sun, Feb 7
75 °FPassing clouds.No wind89%29.98 "HgN/A
10:30 PM75 °FPassing clouds.No wind89%29.98 "HgN/A
9:30 PM79 °FPassing clouds.5 mph84%29.98 "HgN/A
8:30 PM79 °FPassing clouds.2 mph84%29.98 "HgN/A
7:30 PM79 °FPassing clouds.5 mph89%29.95 "HgN/A
6:30 PM79 °FPassing clouds.5 mph94%29.98 "HgN/A
5:30 PM82 °FPassing clouds.3 mph79%29.95 "HgN/A
4:30 PM86 °FPassing clouds.2 mph75%29.95 "HgN/A
3:30 PM86 °FPassing clouds.5 mph75%29.95 "HgN/A
2:30 PM88 °FPassing clouds.2 mph66%29.98 "HgN/A
1:30 PM88 °FPassing clouds.1 mph66%29.98 "HgN/A
12:30 PM88 °FPassing clouds.5 mph70%30.01 "HgN/A
11:30 AM86 °FPassing clouds.2 mph70%30.01 "HgN/A
10:30 AM84 °FPassing clouds.5 mph79%30.04 "HgN/A
Weather by CustomWeather, © 2016

See weather overviewHow to use our weather pages